Regional Weather Roundup
Issued by NWS Portland, ME

Home | Current Version | Previous Version | Text Only | Print | Product List | Glossary On
Versions: 1 2 3 4 5 6 7 8 9 10 11 12 13 14 15 16 17 18 19 20 21 22 23 24 25 26 27 28 29 30 31 32 33 34 35 36 37 38 39 40 41 42 43 44 45 46 47 48 49 50
000
ASUS41 KGYX 300010
RWRGYX
WEATHER ROUNDUP FOR MAINE AND NEW HAMPSHIRE
NATIONAL WEATHER SERVICE GRAY ME
800 PM EDT SAT AUG 29 2015

MEZ002-005-006-010-012-015-018-020-021-024-026-027-029-300100-
MAINE

CITY           SKY/WX    TMP DP  RH WIND       PRES   REMARKS
PORTLAND       CLOUDY    68  63  84 S6        30.06S
6HR MIN TEMP:  68; 6HR MAX TEMP:  75;

SANFORD        MOCLDY    64  57  77 CALM      30.08R
BAR HARBOR     CLEAR     64  63  94 SW6       30.07R
WISCASSET      MOCLDY    65  59  81 CALM      30.08S
6HR MIN TEMP:  65; 6HR MAX TEMP:  76;

ROCKLAND       PTCLDY    64  57  77 CALM      30.06R
FRYEBURG       MOCLDY    70  58  65 W5        30.06S
6HR MIN TEMP:  70; 6HR MAX TEMP:  81;

LEWISTONAUBURN PTCLDY    66 N/A N/A S3        30.06F
AUGUSTA        PTCLDY    67  56  67 S5        30.07R
6HR MIN TEMP:  67; 6HR MAX TEMP:  77;

WATERVILLE     PTCLDY    66  57  72 SW3       30.04R
BANGOR         CLOUDY    67  59  75 S5        30.05S
6HR MIN TEMP:  67; 6HR MAX TEMP:  77;

GREENVILLE       N/A     62  56  80 CALM      30.06S
6HR MIN TEMP:  62; 6HR MAX TEMP:  70;

MILLINOCKET    CLOUDY    66  61  84 CALM      30.05S
6HR MIN TEMP:  66; 6HR MAX TEMP:  75;

HOULTON        CLOUDY    65  57  75 S3        30.02R
6HR MIN TEMP:  64; 6HR MAX TEMP:  75;

PRESQUE ISLE   MOCLDY    66  54  63 SW6       30.01R
6HR MIN TEMP:  66; 6HR MAX TEMP:  73;

FRENCHVILLE    CLOUDY    66  54  65 SW7       30.00R
6HR MIN TEMP:  66; 6HR MAX TEMP:  73;

CARIBOU        MOCLDY    66  57  72 SW6       30.00S
6HR MIN TEMP:  66; 6HR MAX TEMP:  74;

$$

NHZ002-005-008-009-011-012-014-300100-
NEW HAMPSHIRE

CITY           SKY/WX    TMP DP  RH WIND       PRES   REMARKS
PORTSMOUTH     MOCLDY    69  61  77 SW6       30.05S
ROCHESTER      MOCLDY    71  58  63 CALM      30.07S
6HR MIN TEMP:  70; 6HR MAX TEMP:  81;

NASHUA         MOCLDY    71  59  65 CALM      30.09R
MANCHESTER     MOCLDY    74  57  55 SW3       30.07R
6HR MIN TEMP:  74; 6HR MAX TEMP:  81;

CONCORD        MOCLDY    69  60  73 CALM      30.08R
6HR MIN TEMP:  69; 6HR MAX TEMP:  80;

LACONIA        MOCLDY    68  57  68 SW3       30.07R
PLYMOUTH       FAIR      65  62  91 CALM      30.08R
BERLIN         MOCLDY    63  58  83 CALM      30.10R
6HR MIN TEMP:  62; 6HR MAX TEMP:  77;

WHITEFIELD     MOCLDY    65  60  84 CALM      30.09S
6HR MIN TEMP:  65; 6HR MAX TEMP:  76;

JAFFREY        MOCLDY    65  61  87 CALM      30.12S
6HR MIN TEMP:  65; 6HR MAX TEMP:  76;

KEENE          MOCLDY    66  57  72 CALM      30.10S
LEBANON        MOCLDY    65  60  84 S3        30.08R
6HR MIN TEMP:  65; 6HR MAX TEMP:  80;

MT WASHINGTON  FOG       46  46 100 W32         N/A  VSB 1/8
6HR MIN TEMP:  47; 6HR MAX TEMP:  57;

$$

VTZ005-007-008-300100-
VERMONT

CITY           SKY/WX    TMP DP  RH WIND       PRES   REMARKS
ST JOHNSBURY     N/A     68  60  75 MISG      30.06S
MONTPELIER     MOCLDY    65  59  81 CALM      30.12S
BURLINGTON     CLOUDY    73  58  59 CALM      30.05S
$$

MAZ007-012-024-CTZ003-RIZ002-NYZ038-NYZ072-300100-
SOUTHERN NEW ENGLAND AND NY

CITY           SKY/WX    TMP DP  RH WIND       PRES   REMARKS
BOSTON         MOCLDY    77  54  44 W7        30.09R
WORCESTER      CLEAR     68  56  65 W7        30.13R
NANTUCKET      PTCLDY    71  65  81 SW10      30.12S
PROVIDENCE     PTCLDY    72  60  66 SW7       30.10S
HARTFORD       PTCLDY    72  60  66 CALM      30.08S
ALBANY         MOCLDY    74  60  61 SE3       30.08R
NEW YORK CITY  PTCLDY    77  59  53 S14G21    30.10S
$$

ANZ081-ANZ082-ANZ150-NHZ014-MEZ023>029-300100-
COASTAL MARINE OBSERVATIONS

STATION/POSITION TIME  TEMP    WIND        PRES    WAVE
                       AIR SEA DIR/SP/G            HT/PER
                 (UTC) (F)     (DEG/KT/KT) (MB)    (FT/S)
MOUNT DESERT ROC 0000   61     200/ 11/ 12 1018.6S
MATINICUS ROCK   0000   64     210/ 15/ 15 1018.4R
ISLE OF SHOALS   0000   72     210/ 14/ 14 1017.7R
JEFFREYS LEDGE   2303      68                N/A     3/10
CASHES LEDGE BUO 2350   69                 1018.5S   3/11
GEORGES BANK BUO 2350   69 70  220/  4/  4 1020.8R   3/ 9
$$

.............KEY..............
   WCI - WIND CHILL
   TC  - TEMPERATURE IN CELSIUS
   VSB - VISIBILITY IN MILES
   HX  - HEAT INDEX
   FAIR- INDICATES FEW OR NO CLOUDS BELOW 12,000 FT, WITH NO
         SIGNIFICANT WEATHER AND/OR OBSTRUCTIONS TO VISIBILITY.




USA.gov is the U.S. government's official web portal to all federal, state and local government web resources and services.